Time,TemperatureF,DewpointF,PressureIn,WindDirection,WindDirectionDegrees,WindSpeedMPH,WindSpeedGustMPH,Humidity,HourlyPrecipIn,Conditions,Clouds,dailyrainin,SoftwareType,DateUTC
2013-07-11 00:02:00,67.1,17.9,30.23,WSW,238,2.2,3.1,15,0.00,,,0.00,WeatherCatV1.12B45,2013-07-11 07:02:00,
2013-07-11 00:07:00,66.9,17.8,30.23,South,187,2.2,3.1,15,0.00,,,0.00,WeatherCatV1.12B45,2013-07-11 07:07:00,
2013-07-11 00:12:00,67.1,17.9,30.23,SW,216,2.7,3.6,15,0.00,,,0.00,WeatherCatV1.12B45,2013-07-11 07:12:00,
2013-07-11 00:17:00,67.1,17.9,30.23,SSW,211,2.7,3.1,15,0.00,,,0.00,WeatherCatV1.12B45,2013-07-11 07:17:00,
2013-07-11 00:22:00,67.1,17.9,30.23,South,178,2.7,3.1,15,0.00,,,0.00,WeatherCatV1.12B45,2013-07-11 07:22:00,
2013-07-11 00:27:00,66.9,12.7,30.23,SW,221,3.6,4.0,12,0.00,,,0.00,WeatherCatV1.12B45,2013-07-11 07:27:00,
2013-07-11 00:32:00,66.9,17.8,30.23,SSW,207,3.1,4.0,15,0.00,,,0.00,WeatherCatV1.12B45,2013-07-11 07:32:00,
2013-07-11 00:37:00,66.7,17.6,30.23,SSW,207,3.6,4.0,15,0.00,,,0.00,WeatherCatV1.12B45,2013-07-11 07:37:00,
2013-07-11 00:42:00,66.6,12.4,30.23,SSW,209,3.6,5.8,12,0.00,,,0.00,WeatherCatV1.12B45,2013-07-11 07:42:00,
2013-07-11 00:47:00,66.7,12.5,30.23,SSW,210,3.6,5.8,12,0.00,,,0.00,WeatherCatV1.12B45,2013-07-11 07:47:00,
2013-07-11 00:52:00,66.7,12.5,30.23,SSW,211,3.1,4.0,12,0.00,,,0.00,WeatherCatV1.12B45,2013-07-11 07:52:00,
2013-07-11 00:57:00,66.7,12.5,30.23,SSW,205,4.0,4.9,12,0.00,,,0.00,WeatherCatV1.12B45,2013-07-11 07:57:00,
2013-07-11 01:02:00,66.7,12.5,30.23,SSW,198,3.1,5.8,12,0.00,,,0.00,WeatherCatV1.12B45,2013-07-11 08:02:00,
2013-07-11 01:07:00,66.4,12.2,30.23,SSE,151,3.6,3.6,12,0.00,,,0.00,WeatherCatV1.12B45,2013-07-11 08:07:00,
2013-07-11 01:12:00,66.0,13.8,30.23,SW,215,3.6,4.0,13,0.00,,,0.00,WeatherCatV1.12B45,2013-07-11 08:12:00,
2013-07-11 01:17:00,65.8,13.6,30.23,SSW,211,4.9,6.3,13,0.00,,,0.00,WeatherCatV1.12B45,2013-07-11 08:17:00,
2013-07-11 01:22:00,65.7,13.5,30.23,South,181,3.1,4.0,13,0.00,,,0.00,WeatherCatV1.12B45,2013-07-11 08:22:00,
2013-07-11 01:27:00,65.5,13.4,30.23,SW,222,3.1,4.0,13,0.00,,,0.00,WeatherCatV1.12B45,2013-07-11 08:27:00,
2013-07-11 01:32:00,65.1,13.1,30.23,South,184,3.1,3.6,13,0.00,,,0.00,WeatherCatV1.12B45,2013-07-11 08:32:00,
2013-07-11 01:37:00,65.1,13.1,30.23,SSW,198,4.0,4.0,13,0.00,,,0.00,WeatherCatV1.12B45,2013-07-11 08:37:00,
2013-07-11 01:42:00,64.9,12.9,30.23,South,179,6.3,6.3,13,0.00,,,0.00,WeatherCatV1.12B45,2013-07-11 08:42:00,
2013-07-11 01:47:00,64.6,12.6,30.23,SSW,204,5.8,5.8,13,0.00,,,0.00,WeatherCatV1.12B45,2013-07-11 08:47:00,
2013-07-11 01:52:00,64.8,12.8,30.23,SW,220,6.3,6.3,13,0.00,,,0.00,WeatherCatV1.12B45,2013-07-11 08:52:00,
2013-07-11 01:57:00,65.1,13.1,30.23,SW,218,5.4,6.3,13,0.00,,,0.00,WeatherCatV1.12B45,2013-07-11 08:57:00,
2013-07-11 02:02:00,65.1,13.1,30.23,SW,214,4.0,6.3,13,0.00,,,0.00,WeatherCatV1.12B45,2013-07-11 09:02:00,
2013-07-11 02:07:00,65.1,13.1,30.23,SSW,194,5.4,5.8,13,0.00,,,0.00,WeatherCatV1.12B45,2013-07-11 09:07:00,
2013-07-11 02:12:00,64.8,12.8,30.23,SSW,193,3.6,4.9,13,0.00,,,0.00,WeatherCatV1.12B45,2013-07-11 09:12:00,
2013-07-11 02:17:00,63.9,12.1,30.23,South,187,3.6,7.6,13,0.00,,,0.00,WeatherCatV1.12B45,2013-07-11 09:17:00,
2013-07-11 02:22:00,63.9,12.1,30.23,SSW,201,4.0,5.4,13,0.00,,,0.00,WeatherCatV1.12B45,2013-07-11 09:22:00,
2013-07-11 02:27:00,63.9,12.1,30.23,South,184,4.9,5.4,13,0.00,,,0.00,WeatherCatV1.12B45,2013-07-11 09:27:00,
2013-07-11 02:32:00,63.9,12.1,30.26,SSW,204,5.8,7.6,13,0.00,,,0.00,WeatherCatV1.12B45,2013-07-11 09:32:00,
2013-07-11 02:37:00,63.9,12.1,30.26,East,97,3.6,5.8,13,0.00,,,0.00,WeatherCatV1.12B45,2013-07-11 09:37:00,
2013-07-11 02:42:00,63.5,11.8,30.26,SSE,158,5.8,5.8,13,0.00,,,0.00,WeatherCatV1.12B45,2013-07-11 09:42:00,
2013-07-11 02:47:00,63.1,16.2,30.26,SSW,200,4.0,4.0,16,0.00,,,0.00,WeatherCatV1.12B45,2013-07-11 09:47:00,
2013-07-11 02:52:00,62.6,15.8,30.26,SSW,210,3.6,4.9,16,0.00,,,0.00,WeatherCatV1.12B45,2013-07-11 09:52:00,
2013-07-11 02:57:00,62.4,15.6,30.26,South,181,3.6,6.3,16,0.00,,,0.00,WeatherCatV1.12B45,2013-07-11 09:57:00,
2013-07-11 03:02:00,62.4,15.6,30.26,SW,222,3.6,5.8,16,0.00,,,0.00,WeatherCatV1.12B45,2013-07-11 10:02:00,
2013-07-11 03:07:00,62.4,15.6,30.26,South,183,2.2,4.0,16,0.00,,,0.00,WeatherCatV1.12B45,2013-07-11 10:07:00,
2013-07-11 03:12:00,62.2,15.5,30.26,SW,214,3.1,3.6,16,0.00,,,0.00,WeatherCatV1.12B45,2013-07-11 10:12:00,
2013-07-11 03:17:00,62.2,15.5,30.26,SSW,212,3.6,8.1,16,0.00,,,0.00,WeatherCatV1.12B45,2013-07-11 10:17:00,
2013-07-11 03:22:00,62.4,15.6,30.26,WSW,251,4.0,5.8,16,0.00,,,0.00,WeatherCatV1.12B45,2013-07-11 10:22:00,
2013-07-11 03:27:00,62.2,15.5,30.26,SSW,193,4.9,4.9,16,0.00,,,0.00,WeatherCatV1.12B45,2013-07-11 10:27:00,
2013-07-11 03:32:00,62.2,15.5,30.26,ESE,122,3.1,5.4,16,0.00,,,0.00,WeatherCatV1.12B45,2013-07-11 10:32:00,
2013-07-11 03:37:00,62.2,15.5,30.26,WSW,256,5.8,7.2,16,0.00,,,0.00,WeatherCatV1.12B45,2013-07-11 10:37:00,
2013-07-11 03:42:00,62.6,15.8,30.26,South,175,7.6,8.1,16,0.00,,,0.00,WeatherCatV1.12B45,2013-07-11 10:42:00,
2013-07-11 03:47:00,62.6,15.8,30.29,SSW,202,3.1,5.4,16,0.00,,,0.00,WeatherCatV1.12B45,2013-07-11 10:47:00,
2013-07-11 03:52:00,62.6,15.8,30.29,SW,224,4.0,8.3,16,0.00,,,0.00,WeatherCatV1.12B45,2013-07-11 10:52:00,
2013-07-11 03:57:00,62.6,15.8,30.29,South,170,3.6,6.3,16,0.00,,,0.00,WeatherCatV1.12B45,2013-07-11 10:57:00,
2013-07-11 04:02:00,62.6,15.8,30.29,South,189,3.6,6.3,16,0.00,,,0.00,WeatherCatV1.12B45,2013-07-11 11:02:00,
2013-07-11 04:07:00,62.6,15.8,30.29,SSE,162,3.1,5.4,16,0.00,,,0.00,WeatherCatV1.12B45,2013-07-11 11:07:00,
2013-07-11 04:12:00,62.6,15.8,30.29,SSW,194,4.0,5.4,16,0.00,,,0.00,WeatherCatV1.12B45,2013-07-11 11:12:00,
2013-07-11 04:17:00,62.6,18.5,30.26,SSW,200,4.0,5.8,18,0.00,,,0.00,WeatherCatV1.12B45,2013-07-11 11:17:00,
2013-07-11 04:22:00,62.4,15.6,30.26,South,173,4.9,8.1,16,0.00,,,0.00,WeatherCatV1.12B45,2013-07-11 11:22:00,
2013-07-11 04:27:00,62.2,19.5,30.26,SSE,168,2.7,5.4,19,0.00,,,0.00,WeatherCatV1.12B45,2013-07-11 11:27:00,
2013-07-11 04:32:00,61.9,19.2,30.29,SSW,197,4.0,6.3,19,0.00,,,0.00,WeatherCatV1.12B45,2013-07-11 11:32:00,
2013-07-11 04:37:00,61.7,19.0,30.29,South,179,3.6,6.3,19,0.00,,,0.00,WeatherCatV1.12B45,2013-07-11 11:37:00,
2013-07-11 04:42:00,61.5,18.9,30.29,SW,231,0.0,0.0,19,0.00,,,0.00,WeatherCatV1.12B45,2013-07-11 11:42:00,
2013-07-11 04:47:00,61.0,20.8,30.29,North,0,2.7,2.7,21,0.00,,,0.00,WeatherCatV1.12B45,2013-07-11 11:47:00,
2013-07-11 04:52:00,60.4,21.4,30.29,NE,43,0.0,2.2,22,0.00,,,0.00,WeatherCatV1.12B45,2013-07-11 11:52:00,
2013-07-11 04:57:00,60.1,23.2,30.29,NE,42,0.0,0.0,24,0.00,,,0.00,WeatherCatV1.12B45,2013-07-11 11:57:00,
2013-07-11 05:02:00,59.5,22.7,30.26,NE,38,3.1,3.1,24,0.00,,,0.00,WeatherCatV1.12B45,2013-07-11 12:02:00,
2013-07-11 05:07:00,59.5,23.7,30.26,WSW,252,0.0,0.0,25,0.00,,,0.00,WeatherCatV1.12B45,2013-07-11 12:07:00,
2013-07-11 05:12:00,59.2,22.4,30.26,NNE,12,2.2,3.1,24,0.00,,,0.00,WeatherCatV1.12B45,2013-07-11 12:12:00,
2013-07-11 05:17:00,59.5,23.7,30.29,NNE,12,0.0,0.0,25,0.00,,,0.00,WeatherCatV1.12B45,2013-07-11 12:17:00,
2013-07-11 05:22:00,59.2,24.3,30.29,NNE,31,0.0,4.0,26,0.00,,,0.00,WeatherCatV1.12B45,2013-07-11 12:22:00,
2013-07-11 05:27:00,58.8,24.0,30.29,NNE,31,0.0,0.0,26,0.00,,,0.00,WeatherCatV1.12B45,2013-07-11 12:27:00,
2013-07-11 05:32:00,58.6,23.9,30.29,NNE,22,0.0,0.0,26,0.00,,,0.00,WeatherCatV1.12B45,2013-07-11 12:32:00,
2013-07-11 05:37:00,58.8,24.0,30.29,NE,52,0.0,5.8,26,0.00,,,0.00,WeatherCatV1.12B45,2013-07-11 12:37:00,
2013-07-11 05:42:00,58.8,24.9,30.29,NNE,18,0.0,0.0,27,0.00,,,0.00,WeatherCatV1.12B45,2013-07-11 12:42:00,
2013-07-11 05:47:00,58.8,25.8,30.32,NNW,342,0.0,0.0,28,0.00,,,0.00,WeatherCatV1.12B45,2013-07-11 12:47:00,
2013-07-11 05:52:00,58.5,25.5,30.32,NNW,348,0.0,0.0,28,0.00,,,0.00,WeatherCatV1.12B45,2013-07-11 12:52:00,
2013-07-11 05:57:00,58.3,26.2,30.32,NNW,348,0.0,0.0,29,0.00,,,0.00,WeatherCatV1.12B45,2013-07-11 12:57:00,
2013-07-11 06:02:00,57.9,25.9,30.32,SE,126,0.0,0.0,29,0.00,,,0.00,WeatherCatV1.12B45,2013-07-11 13:02:00,
2013-07-11 06:07:00,57.7,27.3,30.32,SE,125,2.7,3.6,31,0.00,,,0.00,WeatherCatV1.12B45,2013-07-11 13:07:00,
2013-07-11 06:12:00,57.9,28.2,30.32,SW,223,3.6,3.6,32,0.00,,,0.00,WeatherCatV1.12B45,2013-07-11 13:12:00,
2013-07-11 06:17:00,58.3,29.3,30.32,South,188,3.1,4.9,33,0.00,,,0.00,WeatherCatV1.12B45,2013-07-11 13:17:00,
2013-07-11 06:22:00,58.5,28.7,30.32,ESE,103,3.6,5.4,32,0.00,,,0.00,WeatherCatV1.12B45,2013-07-11 13:22:00,
2013-07-11 06:27:00,58.5,29.5,30.32,South,183,4.0,8.1,33,0.00,,,0.00,WeatherCatV1.12B45,2013-07-11 13:27:00,
2013-07-11 06:32:00,58.8,29.8,30.32,SE,138,3.6,3.6,33,0.00,,,0.00,WeatherCatV1.12B45,2013-07-11 13:32:00,
2013-07-11 06:37:00,59.0,29.2,30.32,SE,140,8.3,8.3,32,0.00,,,0.00,WeatherCatV1.12B45,2013-07-11 13:37:00,
2013-07-11 06:42:00,59.0,29.2,30.32,SSW,199,2.2,6.3,32,0.00,,,0.00,WeatherCatV1.12B45,2013-07-11 13:42:00,
2013-07-11 06:47:00,59.0,29.2,30.32,SSE,166,4.0,8.3,32,0.00,,,0.00,WeatherCatV1.12B45,2013-07-11 13:47:00,
2013-07-11 06:52:00,59.2,29.3,30.32,SSE,156,3.1,5.4,32,0.00,,,0.00,WeatherCatV1.12B45,2013-07-11 13:52:00,
2013-07-11 06:57:00,59.7,29.0,30.32,ESE,113,4.0,8.1,31,0.00,,,0.00,WeatherCatV1.12B45,2013-07-11 13:57:00,
2013-07-11 07:02:00,59.7,29.0,30.32,SW,221,2.7,6.3,31,0.00,,,0.00,WeatherCatV1.12B45,2013-07-11 14:02:00,
2013-07-11 07:07:00,60.1,29.4,30.32,ESE,119,3.6,6.3,31,0.00,,,0.00,WeatherCatV1.12B45,2013-07-11 14:07:00,
2013-07-11 07:12:00,62.2,30.4,30.32,SE,142,3.6,3.6,30,0.00,,,0.00,WeatherCatV1.12B45,2013-07-11 14:12:00,
2013-07-11 07:17:00,62.4,29.7,30.32,SE,129,5.8,6.7,29,0.00,,,0.00,WeatherCatV1.12B45,2013-07-11 14:17:00,
2013-07-11 07:22:00,62.2,28.7,30.32,SW,236,2.7,2.7,28,0.00,,,0.00,WeatherCatV1.12B45,2013-07-11 14:22:00,
2013-07-11 07:27:00,62.2,29.6,30.32,SSE,165,5.4,5.4,29,0.00,,,0.00,WeatherCatV1.12B45,2013-07-11 14:27:00,
2013-07-11 07:32:00,64.9,30.2,30.32,ESE,111,3.1,5.8,27,0.00,,,0.00,WeatherCatV1.12B45,2013-07-11 14:32:00,
2013-07-11 07:37:00,69.8,32.4,30.32,ESE,116,3.6,3.6,25,0.00,,,0.00,WeatherCatV1.12B45,2013-07-11 14:37:00,
2013-07-11 07:42:00,73.0,33.0,30.32,SE,131,2.7,8.7,23,0.00,,,0.00,WeatherCatV1.12B45,2013-07-11 14:42:00,
2013-07-11 07:47:00,75.0,33.6,30.32,SSE,147,5.8,9.6,22,0.00,,,0.00,WeatherCatV1.12B45,2013-07-11 14:47:00,
2013-07-11 07:52:00,77.2,33.0,30.32,SE,141,2.2,4.9,20,0.00,,,0.00,WeatherCatV1.12B45,2013-07-11 14:52:00,
2013-07-11 07:57:00,77.9,33.6,30.32,ENE,57,3.1,3.6,20,0.00,,,0.00,WeatherCatV1.12B45,2013-07-11 14:57:00,
2013-07-11 08:02:00,77.4,30.5,30.32,SSE,158,3.1,8.7,18,0.00,,,0.00,WeatherCatV1.12B45,2013-07-11 15:02:00,
2013-07-11 08:07:00,77.9,31.0,30.32,NNW,335,2.7,3.6,18,0.00,,,0.00,WeatherCatV1.12B45,2013-07-11 15:07:00,
2013-07-11 08:12:00,77.0,30.2,30.32,SSW,202,4.0,5.8,18,0.00,,,0.00,WeatherCatV1.12B45,2013-07-11 15:12:00,
2013-07-11 08:17:00,76.5,29.8,30.32,SSW,192,0.0,3.6,18,0.00,,,0.00,WeatherCatV1.12B45,2013-07-11 15:17:00,
2013-07-11 08:22:00,74.1,27.9,30.32,South,191,0.0,2.2,18,0.00,,,0.00,WeatherCatV1.12B45,2013-07-11 15:22:00,
2013-07-11 08:27:00,72.5,27.9,30.32,East,88,4.0,4.9,19,0.00,,,0.00,WeatherCatV1.12B45,2013-07-11 15:27:00,
2013-07-11 08:32:00,74.7,28.3,30.32,ESE,105,3.6,4.0,18,0.00,,,0.00,WeatherCatV1.12B45,2013-07-11 15:32:00,
2013-07-11 08:37:00,78.1,31.1,30.32,NNE,22,3.1,3.6,18,0.00,,,0.00,WeatherCatV1.12B45,2013-07-11 15:37:00,
2013-07-11 08:42:00,79.9,31.2,30.32,NE,41,0.0,0.0,17,0.00,,,0.00,WeatherCatV1.12B45,2013-07-11 15:42:00,
2013-07-11 08:47:00,81.1,27.4,30.32,SW,216,4.0,4.0,14,0.00,,,0.00,WeatherCatV1.12B45,2013-07-11 15:47:00,
2013-07-11 08:52:00,82.6,28.5,30.32,ENE,70,0.0,0.0,14,0.00,,,0.00,WeatherCatV1.12B45,2013-07-11 15:52:00,
2013-07-11 08:57:00,83.1,29.0,30.32,West,278,2.7,5.4,14,0.00,,,0.00,WeatherCatV1.12B45,2013-07-11 15:57:00,
2013-07-11 09:02:00,83.3,23.3,30.32,SSW,202,7.6,7.6,11,0.00,,,0.00,WeatherCatV1.12B45,2013-07-11 16:02:00,
2013-07-11 09:07:00,84.7,24.4,30.32,ENE,71,0.0,2.7,11,0.00,,,0.00,WeatherCatV1.12B45,2013-07-11 16:07:00,
2013-07-11 09:12:00,86.0,25.4,30.32,NNW,333,2.7,7.6,11,0.00,,,0.00,WeatherCatV1.12B45,2013-07-11 16:12:00,
2013-07-11 09:17:00,85.8,25.2,30.32,SSE,163,2.7,7.2,11,0.00,,,0.00,WeatherCatV1.12B45,2013-07-11 16:17:00,
2013-07-11 09:22:00,84.9,24.5,30.32,South,171,3.6,4.9,11,0.00,,,0.00,WeatherCatV1.12B45,2013-07-11 16:22:00,
2013-07-11 09:27:00,86.0,25.4,30.32,ESE,116,4.9,4.9,11,0.00,,,0.00,WeatherCatV1.12B45,2013-07-11 16:27:00,
2013-07-11 09:32:00,86.5,25.8,30.32,ESE,104,5.4,5.4,11,0.00,,,0.00,WeatherCatV1.12B45,2013-07-11 16:32:00,
2013-07-11 09:37:00,86.9,26.1,30.32,SSE,167,5.8,7.6,11,0.00,,,0.00,WeatherCatV1.12B45,2013-07-11 16:37:00,
2013-07-11 09:42:00,87.1,26.2,30.32,WNW,290,0.0,5.8,11,0.00,,,0.00,WeatherCatV1.12B45,2013-07-11 16:42:00,
2013-07-11 09:47:00,87.1,26.2,30.32,West,268,4.0,5.4,11,0.00,,,0.00,WeatherCatV1.12B45,2013-07-11 16:47:00,
2013-07-11 09:52:00,87.3,26.3,30.32,SSE,148,3.6,4.0,11,0.00,,,0.00,WeatherCatV1.12B45,2013-07-11 16:52:00,
2013-07-11 09:57:00,86.5,18.3,30.32,SSW,213,6.7,8.3,8,0.00,,,0.00,WeatherCatV1.12B45,2013-07-11 16:57:00,
2013-07-11 10:02:00,86.2,25.5,30.32,SW,232,2.2,4.0,11,0.00,,,0.00,WeatherCatV1.12B45,2013-07-11 17:02:00,
2013-07-11 10:07:00,86.4,25.6,30.32,SW,216,2.7,5.4,11,0.00,,,0.00,WeatherCatV1.12B45,2013-07-11 17:07:00,
2013-07-11 10:12:00,87.1,26.2,30.32,SSW,195,2.7,8.1,11,0.00,,,0.00,WeatherCatV1.12B45,2013-07-11 17:12:00,
2013-07-11 10:17:00,87.4,18.9,30.32,ESE,107,3.1,5.4,8,0.00,,,0.00,WeatherCatV1.12B45,2013-07-11 17:17:00,
2013-07-11 10:23:00,87.6,19.0,30.32,WNW,298,7.6,7.6,8,0.00,,,0.00,WeatherCatV1.12B45,2013-07-11 17:23:00,
2013-07-11 10:28:00,87.8,19.2,30.32,South,179,3.1,8.3,8,0.00,,,0.00,WeatherCatV1.12B45,2013-07-11 17:28:00,
2013-07-11 10:33:00,87.4,18.9,30.35,SW,216,0.0,5.8,8,0.00,,,0.00,WeatherCatV1.12B45,2013-07-11 17:33:00,
2013-07-11 10:38:00,88.0,19.3,30.35,SSW,195,3.1,8.1,8,0.00,,,0.00,WeatherCatV1.12B45,2013-07-11 17:38:00,
2013-07-11 10:43:00,87.3,18.8,30.35,West,263,2.7,4.0,8,0.00,,,0.00,WeatherCatV1.12B45,2013-07-11 17:43:00,
2013-07-11 10:48:00,88.7,19.8,30.35,SW,229,4.0,8.1,8,0.00,,,0.00,WeatherCatV1.12B45,2013-07-11 17:48:00,
2013-07-11 10:51:00,88.7,19.8,30.35,ENE,78,5.4,5.4,8,0.00,,,0.00,WeatherCatV1.12B45,2013-07-11 17:51:00,
2013-07-11 10:56:00,88.7,19.8,30.35,ESE,121,3.6,10.1,8,0.00,,,0.00,WeatherCatV1.12B45,2013-07-11 17:56:00,
2013-07-11 11:01:00,87.4,18.9,30.35,ESE,119,0.0,6.3,8,0.00,,,0.00,WeatherCatV1.12B45,2013-07-11 18:01:00,
2013-07-11 11:06:00,87.4,18.9,30.35,West,274,0.0,7.6,8,0.00,,,0.00,WeatherCatV1.12B45,2013-07-11 18:06:00,
2013-07-11 11:11:00,86.7,18.4,30.35,South,175,0.0,3.1,8,0.00,,,0.00,WeatherCatV1.12B45,2013-07-11 18:11:00,
2013-07-11 11:16:00,85.5,17.5,30.35,East,89,2.7,4.5,8,0.00,,,0.00,WeatherCatV1.12B45,2013-07-11 18:16:00,
2013-07-11 11:21:00,84.6,16.8,30.35,ESE,120,2.7,3.1,8,0.00,,,0.00,WeatherCatV1.12B45,2013-07-11 18:21:00,
2013-07-11 11:26:00,84.0,19.1,30.35,SW,218,2.7,4.0,9,0.00,,,0.00,WeatherCatV1.12B45,2013-07-11 18:26:00,
2013-07-11 11:31:00,82.9,18.3,30.35,South,189,4.0,10.1,9,0.00,,,0.00,WeatherCatV1.12B45,2013-07-11 18:31:00,
2013-07-11 11:36:00,82.2,17.8,30.35,ESE,115,4.0,4.0,9,0.00,,,0.00,WeatherCatV1.12B45,2013-07-11 18:36:00,
2013-07-11 11:41:00,81.7,17.4,30.35,ESE,113,6.3,8.7,9,0.00,,,0.00,WeatherCatV1.12B45,2013-07-11 18:41:00,
2013-07-11 11:46:00,81.3,17.1,30.35,SSE,150,3.1,7.6,9,0.00,,,0.00,WeatherCatV1.12B45,2013-07-11 18:46:00,
2013-07-11 11:51:00,81.1,17.0,30.35,North,357,0.0,4.0,9,0.00,,,0.00,WeatherCatV1.12B45,2013-07-11 18:51:00,
2013-07-11 11:56:00,81.1,17.0,30.35,WSW,238,2.2,5.8,9,0.00,,,0.00,WeatherCatV1.12B45,2013-07-11 18:56:00,
2013-07-11 12:01:00,80.6,16.6,30.35,West,266,4.9,6.3,9,0.00,,,0.00,WeatherCatV1.12B45,2013-07-11 19:01:00,
2013-07-11 12:06:00,79.7,18.3,30.35,SW,220,3.1,7.2,10,0.00,,,0.00,WeatherCatV1.12B45,2013-07-11 19:06:00,
2013-07-11 12:11:00,79.5,18.2,30.35,SSE,157,6.3,6.3,10,0.00,,,0.00,WeatherCatV1.12B45,2013-07-11 19:11:00,
2013-07-11 12:16:00,79.0,17.8,30.35,West,268,4.0,8.1,10,0.00,,,0.00,WeatherCatV1.12B45,2013-07-11 19:16:00,
2013-07-11 12:21:00,79.5,18.2,30.35,WNW,295,5.4,6.3,10,0.00,,,0.00,WeatherCatV1.12B45,2013-07-11 19:21:00,
2013-07-11 12:26:00,79.5,18.2,30.35,East,87,0.0,6.3,10,0.00,,,0.00,WeatherCatV1.12B45,2013-07-11 19:26:00,
2013-07-11 12:31:00,79.9,18.5,30.35,South,174,3.1,3.6,10,0.00,,,0.00,WeatherCatV1.12B45,2013-07-11 19:31:00,
2013-07-11 12:36:00,80.1,18.6,30.35,WNW,285,6.3,8.1,10,0.00,,,0.00,WeatherCatV1.12B45,2013-07-11 19:36:00,
2013-07-11 12:41:00,80.2,18.7,30.35,NNW,327,2.7,8.1,10,0.00,,,0.00,WeatherCatV1.12B45,2013-07-11 19:41:00,
2013-07-11 12:46:00,79.9,18.5,30.35,North,353,0.0,8.3,10,0.00,,,0.00,WeatherCatV1.12B45,2013-07-11 19:46:00,
2013-07-11 12:51:00,79.7,18.3,30.32,East,83,0.0,4.9,10,0.00,,,0.00,WeatherCatV1.12B45,2013-07-11 19:51:00,
2013-07-11 12:56:00,80.1,18.6,30.32,WSW,248,5.4,6.7,10,0.00,,,0.00,WeatherCatV1.12B45,2013-07-11 19:56:00,
2013-07-11 13:01:00,79.9,18.5,30.32,North,0,0.0,3.6,10,0.00,,,0.00,WeatherCatV1.12B45,2013-07-11 20:01:00,
2013-07-11 13:06:00,80.4,18.9,30.32,ESE,109,3.1,5.4,10,0.00,,,0.00,WeatherCatV1.12B45,2013-07-11 20:06:00,
2013-07-11 13:11:00,80.8,16.7,30.32,ESE,110,2.7,3.6,9,0.00,,,0.00,WeatherCatV1.12B45,2013-07-11 20:11:00,
2013-07-11 13:16:00,80.8,16.7,30.32,SSE,161,8.1,8.1,9,0.00,,,0.00,WeatherCatV1.12B45,2013-07-11 20:16:00,
2013-07-11 13:21:00,80.8,16.7,30.32,West,264,2.7,5.8,9,0.00,,,0.00,WeatherCatV1.12B45,2013-07-11 20:21:00,
2013-07-11 13:26:00,80.2,18.7,30.32,NW,307,3.6,8.7,10,0.00,,,0.00,WeatherCatV1.12B45,2013-07-11 20:26:00,
2013-07-11 13:31:00,80.4,18.9,30.32,WSW,249,4.9,8.7,10,0.00,,,0.00,WeatherCatV1.12B45,2013-07-11 20:31:00,
2013-07-11 13:36:00,80.2,18.7,30.32,WNW,296,3.1,8.3,10,0.00,,,0.00,WeatherCatV1.12B45,2013-07-11 20:36:00,
2013-07-11 13:41:00,80.8,16.7,30.32,SSW,200,3.1,5.4,9,0.00,,,0.00,WeatherCatV1.12B45,2013-07-11 20:41:00,
2013-07-11 13:46:00,81.0,16.8,30.32,North,0,3.6,5.8,9,0.00,,,0.00,WeatherCatV1.12B45,2013-07-11 20:46:00,
2013-07-11 13:51:00,81.3,17.1,30.32,SSE,155,3.1,5.8,9,0.00,,,0.00,WeatherCatV1.12B45,2013-07-11 20:51:00,
2013-07-11 13:56:00,80.8,16.7,30.32,West,261,4.9,12.3,9,0.00,,,0.00,WeatherCatV1.12B45,2013-07-11 20:56:00,
2013-07-11 14:01:00,81.0,16.8,30.32,West,259,3.1,4.0,9,0.00,,,0.00,WeatherCatV1.12B45,2013-07-11 21:01:00,
2013-07-11 14:06:00,81.1,17.0,30.32,WSW,255,4.0,5.4,9,0.00,,,0.00,WeatherCatV1.12B45,2013-07-11 21:06:00,
2013-07-11 14:11:00,81.7,17.4,30.32,WSW,240,3.6,4.0,9,0.00,,,0.00,WeatherCatV1.12B45,2013-07-11 21:11:00,
2013-07-11 14:16:00,81.7,17.4,30.32,SSW,198,3.1,7.6,9,0.00,,,0.00,WeatherCatV1.12B45,2013-07-11 21:16:00,
2013-07-11 14:21:00,81.5,17.2,30.32,SSW,211,5.8,6.3,9,0.00,,,0.00,WeatherCatV1.12B45,2013-07-11 21:21:00,
2013-07-11 14:26:00,81.3,11.4,30.32,SSW,204,2.2,9.2,7,0.00,,,0.00,WeatherCatV1.12B45,2013-07-11 21:26:00,
2013-07-11 14:31:00,81.7,11.6,30.32,South,172,5.8,5.8,7,0.00,,,0.00,WeatherCatV1.12B45,2013-07-11 21:31:00,
2013-07-11 14:36:00,81.9,17.5,30.32,SSW,213,2.7,4.9,9,0.00,,,0.00,WeatherCatV1.12B45,2013-07-11 21:36:00,
2013-07-11 14:41:00,82.4,17.9,30.32,SW,219,3.6,5.4,9,0.00,,,0.00,WeatherCatV1.12B45,2013-07-11 21:41:00,
2013-07-11 14:46:00,82.2,17.8,30.32,SW,232,4.0,7.6,9,0.00,,,0.00,WeatherCatV1.12B45,2013-07-11 21:46:00,
2013-07-11 14:51:00,82.8,18.2,30.32,West,270,3.6,3.6,9,0.00,,,0.00,WeatherCatV1.12B45,2013-07-11 21:51:00,
2013-07-11 14:56:00,82.8,9.0,30.32,NNW,342,5.4,5.8,6,0.00,,,0.00,WeatherCatV1.12B45,2013-07-11 21:56:00,
2013-07-11 15:01:00,83.1,18.4,30.32,SE,140,4.0,5.8,9,0.00,,,0.00,WeatherCatV1.12B45,2013-07-11 22:01:00,
2013-07-11 15:06:00,82.9,9.1,30.29,South,172,2.7,7.6,6,0.00,,,0.00,WeatherCatV1.12B45,2013-07-11 22:06:00,
2013-07-11 15:11:00,82.9,9.1,30.29,ENE,72,2.2,2.7,6,0.00,,,0.00,WeatherCatV1.12B45,2013-07-11 22:11:00,
2013-07-11 15:16:00,83.1,9.2,30.29,WSW,253,3.1,7.6,6,0.00,,,0.00,WeatherCatV1.12B45,2013-07-11 22:16:00,
2013-07-11 15:21:00,83.1,9.2,30.29,SSW,194,3.1,7.2,6,0.00,,,0.00,WeatherCatV1.12B45,2013-07-11 22:21:00,
2013-07-11 15:26:00,82.6,8.9,30.29,SSW,209,3.1,5.4,6,0.00,,,0.00,WeatherCatV1.12B45,2013-07-11 22:26:00,
2013-07-11 15:31:00,82.6,8.9,30.29,SSE,159,3.1,7.6,6,0.00,,,0.00,WeatherCatV1.12B45,2013-07-11 22:31:00,
2013-07-11 15:36:00,82.2,12.0,30.32,SSW,212,5.4,12.8,7,0.00,,,0.00,WeatherCatV1.12B45,2013-07-11 22:36:00,
2013-07-11 15:41:00,82.9,9.1,30.32,SSW,212,3.1,4.9,6,0.00,,,0.00,WeatherCatV1.12B45,2013-07-11 22:41:00,
2013-07-11 15:46:00,82.9,9.1,30.32,SSW,211,3.6,8.7,6,0.00,,,0.00,WeatherCatV1.12B45,2013-07-11 22:46:00,
2013-07-11 15:51:00,82.6,8.9,30.32,West,281,5.4,7.2,6,0.00,,,0.00,WeatherCatV1.12B45,2013-07-11 22:51:00,
2013-07-11 15:56:00,82.2,12.0,30.32,WSW,239,2.7,7.6,7,0.00,,,0.00,WeatherCatV1.12B45,2013-07-11 22:56:00,
2013-07-11 16:01:00,82.2,12.0,30.32,WSW,238,5.8,6.3,7,0.00,,,0.00,WeatherCatV1.12B45,2013-07-11 23:01:00,
2013-07-11 16:06:00,82.0,11.9,30.29,NE,37,4.0,4.9,7,0.00,,,0.00,WeatherCatV1.12B45,2013-07-11 23:06:00,
2013-07-11 16:11:00,81.3,11.4,30.29,West,281,6.3,6.3,7,0.00,,,0.00,WeatherCatV1.12B45,2013-07-11 23:11:00,
2013-07-11 16:16:00,81.5,11.5,30.29,WSW,245,3.1,8.3,7,0.00,,,0.00,WeatherCatV1.12B45,2013-07-11 23:16:00,
2013-07-11 16:21:00,81.5,11.5,30.29,West,264,4.0,4.9,7,0.00,,,0.00,WeatherCatV1.12B45,2013-07-11 23:21:00,
2013-07-11 16:26:00,81.3,11.4,30.29,WSW,250,2.7,6.3,7,0.00,,,0.00,WeatherCatV1.12B45,2013-07-11 23:26:00,
2013-07-11 16:31:00,81.0,11.1,30.29,NW,305,3.6,7.6,7,0.00,,,0.00,WeatherCatV1.12B45,2013-07-11 23:31:00,
2013-07-11 16:36:00,80.8,11.0,30.29,WNW,294,6.7,6.7,7,0.00,,,0.00,WeatherCatV1.12B45,2013-07-11 23:36:00,
2013-07-11 16:41:00,80.4,10.7,30.29,WSW,249,4.0,4.0,7,0.00,,,0.00,WeatherCatV1.12B45,2013-07-11 23:41:00,
2013-07-11 16:46:00,79.7,10.2,30.29,NW,306,2.7,6.3,7,0.00,,,0.00,WeatherCatV1.12B45,2013-07-11 23:46:00,
2013-07-11 16:51:00,79.7,10.2,30.29,ESE,106,3.1,6.3,7,0.00,,,0.00,WeatherCatV1.12B45,2013-07-11 23:51:00,
2013-07-11 16:56:00,79.7,10.2,30.29,NE,45,3.1,5.4,7,0.00,,,0.00,WeatherCatV1.12B45,2013-07-11 23:56:00,
2013-07-11 17:01:00,79.3,9.9,30.29,NW,315,5.8,5.8,7,0.00,,,0.00,WeatherCatV1.12B45,2013-07-12 00:01:00,
2013-07-11 17:06:00,79.2,9.8,30.29,WSW,247,3.6,5.4,7,0.00,,,0.00,WeatherCatV1.12B45,2013-07-12 00:06:00,
2013-07-11 17:11:00,78.8,9.5,30.29,SW,218,4.9,5.4,7,0.00,,,0.00,WeatherCatV1.12B45,2013-07-12 00:11:00,
2013-07-11 17:16:00,78.3,12.1,30.29,South,177,5.4,5.4,8,0.00,,,0.00,WeatherCatV1.12B45,2013-07-12 00:16:00,
2013-07-11 17:21:00,78.1,12.0,30.29,SE,125,4.0,5.4,8,0.00,,,0.00,WeatherCatV1.12B45,2013-07-12 00:21:00,
2013-07-11 17:26:00,77.5,11.6,30.29,NW,307,6.3,6.3,8,0.00,,,0.00,WeatherCatV1.12B45,2013-07-12 00:26:00,
2013-07-11 17:31:00,77.4,11.5,30.29,NW,305,4.9,4.9,8,0.00,,,0.00,WeatherCatV1.12B45,2013-07-12 00:31:00,
2013-07-11 17:36:00,77.0,11.2,30.29,WNW,282,8.1,12.3,8,0.00,,,0.00,WeatherCatV1.12B45,2013-07-12 00:36:00,
2013-07-11 17:41:00,76.8,11.1,30.29,North,353,4.0,5.8,8,0.00,,,0.00,WeatherCatV1.12B45,2013-07-12 00:41:00,
2013-07-11 17:46:00,76.3,10.7,30.29,West,270,2.2,5.8,8,0.00,,,0.00,WeatherCatV1.12B45,2013-07-12 00:46:00,
2013-07-11 17:51:00,75.9,10.4,30.29,WNW,302,2.7,8.7,8,0.00,,,0.00,WeatherCatV1.12B45,2013-07-12 00:51:00,
2013-07-11 17:56:00,76.1,10.5,30.29,West,264,6.7,12.8,8,0.00,,,0.00,WeatherCatV1.12B45,2013-07-12 00:56:00,
2013-07-11 18:01:00,76.3,10.7,30.29,West,266,3.1,5.8,8,0.00,,,0.00,WeatherCatV1.12B45,2013-07-12 01:01:00,
2013-07-11 18:06:00,76.1,10.5,30.29,SSW,206,0.0,4.0,8,0.00,,,0.00,WeatherCatV1.12B45,2013-07-12 01:06:00,
2013-07-11 18:11:00,75.7,10.3,30.29,SSE,151,0.0,4.0,8,0.00,,,0.00,WeatherCatV1.12B45,2013-07-12 01:11:00,
2013-07-11 18:16:00,75.6,10.1,30.29,WNW,301,4.0,6.3,8,0.00,,,0.00,WeatherCatV1.12B45,2013-07-12 01:16:00,
2013-07-11 18:21:00,75.6,10.1,30.29,NW,321,4.9,4.9,8,0.00,,,0.00,WeatherCatV1.12B45,2013-07-12 01:21:00,
2013-07-11 18:26:00,75.7,10.3,30.29,SSE,162,5.4,6.3,8,0.00,,,0.00,WeatherCatV1.12B45,2013-07-12 01:26:00,
2013-07-11 18:31:00,75.6,10.1,30.26,ESE,114,3.6,3.6,8,0.00,,,0.00,WeatherCatV1.12B45,2013-07-12 01:31:00,
2013-07-11 18:36:00,75.0,9.7,30.26,South,191,2.7,4.9,8,0.00,,,0.00,WeatherCatV1.12B45,2013-07-12 01:36:00,
2013-07-11 18:41:00,74.8,9.6,30.26,WNW,291,5.4,5.4,8,0.00,,,0.00,WeatherCatV1.12B45,2013-07-12 01:41:00,
2013-07-11 18:46:00,74.8,9.6,30.26,WSW,254,0.0,2.2,8,0.00,,,0.00,WeatherCatV1.12B45,2013-07-12 01:46:00,
2013-07-11 18:51:00,74.7,9.5,30.26,ESE,122,5.4,5.8,8,0.00,,,0.00,WeatherCatV1.12B45,2013-07-12 01:51:00,
2013-07-11 18:56:00,74.3,9.2,30.26,SSW,212,3.6,3.6,8,0.00,,,0.00,WeatherCatV1.12B45,2013-07-12 01:56:00,
2013-07-11 19:01:00,73.9,8.9,30.26,NW,319,2.7,5.4,8,0.00,,,0.00,WeatherCatV1.12B45,2013-07-12 02:01:00,
2013-07-11 19:06:00,73.8,8.8,30.26,NE,50,0.0,0.0,8,0.00,,,0.00,WeatherCatV1.12B45,2013-07-12 02:06:00,
2013-07-11 19:11:00,73.4,8.5,30.26,WSW,251,2.7,5.8,8,0.00,,,0.00,WeatherCatV1.12B45,2013-07-12 02:11:00,
2013-07-11 19:16:00,73.2,11.0,30.26,SW,231,0.0,5.8,9,0.00,,,0.00,WeatherCatV1.12B45,2013-07-12 02:16:00,
2013-07-11 19:21:00,73.0,10.9,30.29,West,261,0.0,3.6,9,0.00,,,0.00,WeatherCatV1.12B45,2013-07-12 02:21:00,
2013-07-11 19:26:00,72.7,10.6,30.29,ESE,120,0.0,2.7,9,0.00,,,0.00,WeatherCatV1.12B45,2013-07-12 02:26:00,
2013-07-11 19:31:00,72.5,10.5,30.29,SW,232,0.0,4.5,9,0.00,,,0.00,WeatherCatV1.12B45,2013-07-12 02:31:00,
2013-07-11 19:36:00,72.3,10.3,30.26,WSW,243,0.0,4.0,9,0.00,,,0.00,WeatherCatV1.12B45,2013-07-12 02:36:00,
2013-07-11 19:41:00,72.0,10.1,30.26,East,81,0.0,0.0,9,0.00,,,0.00,WeatherCatV1.12B45,2013-07-12 02:41:00,
2013-07-11 19:46:00,71.4,9.7,30.26,SSE,161,0.0,0.0,9,0.00,,,0.00,WeatherCatV1.12B45,2013-07-12 02:46:00,
2013-07-11 19:51:00,70.9,9.3,30.26,SSW,192,0.0,3.1,9,0.00,,,0.00,WeatherCatV1.12B45,2013-07-12 02:51:00,
2013-07-11 19:56:00,70.3,8.9,30.26,NNW,348,2.2,2.7,9,0.00,,,0.00,WeatherCatV1.12B45,2013-07-12 02:56:00,
2013-07-11 20:01:00,70.0,8.6,30.26,West,270,0.0,2.2,9,0.00,,,0.00,WeatherCatV1.12B45,2013-07-12 03:01:00,
2013-07-11 20:06:00,69.4,10.5,30.26,SW,225,0.0,5.4,10,0.00,,,0.00,WeatherCatV1.12B45,2013-07-12 03:06:00,
2013-07-11 20:11:00,69.1,10.2,30.26,South,183,0.0,0.0,10,0.00,,,0.00,WeatherCatV1.12B45,2013-07-12 03:11:00,
2013-07-11 20:16:00,68.5,9.8,30.26,South,175,0.0,0.0,10,0.00,,,0.00,WeatherCatV1.12B45,2013-07-12 03:16:00,
2013-07-11 20:21:00,68.0,9.4,30.26,NW,324,0.0,0.0,10,0.00,,,0.00,WeatherCatV1.12B45,2013-07-12 03:21:00,
2013-07-11 20:26:00,67.1,8.7,30.26,South,178,0.0,0.0,10,0.00,,,0.00,WeatherCatV1.12B45,2013-07-12 03:26:00,
2013-07-11 20:31:00,66.4,8.2,30.26,ESE,123,3.1,3.1,10,0.00,,,0.00,WeatherCatV1.12B45,2013-07-12 03:31:00,
2013-07-11 20:36:00,66.4,8.2,30.29,South,187,2.7,4.0,10,0.00,,,0.00,WeatherCatV1.12B45,2013-07-12 03:36:00,
2013-07-11 20:41:00,66.0,7.9,30.29,SSE,162,0.0,0.0,10,0.00,,,0.00,WeatherCatV1.12B45,2013-07-12 03:41:00,
2013-07-11 20:46:00,65.7,7.6,30.29,South,170,0.0,2.7,10,0.00,,,0.00,WeatherCatV1.12B45,2013-07-12 03:46:00,
2013-07-11 20:51:00,65.1,7.2,30.29,SSW,212,4.0,4.0,10,0.00,,,0.00,WeatherCatV1.12B45,2013-07-12 03:51:00,
2013-07-11 20:56:00,65.3,7.4,30.29,SSW,206,0.0,2.7,10,0.00,,,0.00,WeatherCatV1.12B45,2013-07-12 03:56:00,
2013-07-11 21:01:00,64.8,6.9,30.29,South,187,2.7,3.6,10,0.00,,,0.00,WeatherCatV1.12B45,2013-07-12 04:01:00,
2013-07-11 21:06:00,64.4,6.7,30.29,South,190,2.7,2.7,10,0.00,,,0.00,WeatherCatV1.12B45,2013-07-12 04:06:00,
2013-07-11 21:11:00,64.0,8.5,30.29,South,180,2.7,3.6,11,0.00,,,0.00,WeatherCatV1.12B45,2013-07-12 04:11:00,
2013-07-11 21:16:00,63.7,8.2,30.29,SW,214,3.6,3.6,11,0.00,,,0.00,WeatherCatV1.12B45,2013-07-12 04:16:00,
2013-07-11 21:21:00,63.5,8.1,30.29,West,263,3.1,3.6,11,0.00,,,0.00,WeatherCatV1.12B45,2013-07-12 04:21:00,
2013-07-11 21:26:00,63.5,8.1,30.29,ESE,123,2.7,3.6,11,0.00,,,0.00,WeatherCatV1.12B45,2013-07-12 04:26:00,
2013-07-11 21:31:00,63.5,8.1,30.29,WSW,252,3.1,6.3,11,0.00,,,0.00,WeatherCatV1.12B45,2013-07-12 04:31:00,
2013-07-11 21:36:00,63.5,8.1,30.29,SSW,203,3.6,5.4,11,0.00,,,0.00,WeatherCatV1.12B45,2013-07-12 04:36:00,
2013-07-11 21:41:00,63.1,7.8,30.29,SSE,159,3.1,3.6,11,0.00,,,0.00,WeatherCatV1.12B45,2013-07-12 04:41:00,
2013-07-11 21:46:00,63.1,7.8,30.29,SSW,195,3.6,5.8,11,0.00,,,0.00,WeatherCatV1.12B45,2013-07-12 04:46:00,
2013-07-11 21:51:00,63.1,7.8,30.29,SSW,199,3.1,4.9,11,0.00,,,0.00,WeatherCatV1.12B45,2013-07-12 04:51:00,
2013-07-11 21:56:00,62.8,7.5,30.29,SSW,197,3.6,8.1,11,0.00,,,0.00,WeatherCatV1.12B45,2013-07-12 04:56:00,
2013-07-11 22:01:00,62.8,7.5,30.29,SSW,198,4.0,7.6,11,0.00,,,0.00,WeatherCatV1.12B45,2013-07-12 05:01:00,
2013-07-11 22:06:00,62.8,7.5,30.29,SE,139,6.3,6.3,11,0.00,,,0.00,WeatherCatV1.12B45,2013-07-12 05:06:00,
2013-07-11 22:11:00,62.1,7.0,30.29,SSW,212,3.1,4.9,11,0.00,,,0.00,WeatherCatV1.12B45,2013-07-12 05:11:00,
2013-07-11 22:16:00,61.7,6.7,30.29,South,188,3.1,3.6,11,0.00,,,0.00,WeatherCatV1.12B45,2013-07-12 05:16:00,
2013-07-11 22:21:00,61.3,6.4,30.29,SSW,209,0.0,0.0,11,0.00,,,0.00,WeatherCatV1.12B45,2013-07-12 05:21:00,
2013-07-11 22:26:00,60.6,7.8,30.29,South,187,0.0,0.0,12,0.00,,,0.00,WeatherCatV1.12B45,2013-07-12 05:26:00,
2013-07-11 22:31:00,60.3,7.5,30.29,SSW,213,0.0,0.0,12,0.00,,,0.00,WeatherCatV1.12B45,2013-07-12 05:31:00,
2013-07-11 22:36:00,59.5,6.9,30.29,SSW,192,2.7,5.4,12,0.00,,,0.00,WeatherCatV1.12B45,2013-07-12 05:36:00,
2013-07-11 22:41:00,59.0,6.5,30.29,SSW,207,2.7,3.6,12,0.00,,,0.00,WeatherCatV1.12B45,2013-07-12 05:41:00,
2013-07-11 22:46:00,59.0,6.5,30.29,SSW,197,2.2,2.7,12,0.00,,,0.00,WeatherCatV1.12B45,2013-07-12 05:46:00,
2013-07-11 22:51:00,59.0,6.5,30.29,SW,219,2.7,5.8,12,0.00,,,0.00,WeatherCatV1.12B45,2013-07-12 05:51:00,
2013-07-11 22:56:00,59.2,6.6,30.29,South,179,3.1,3.1,12,0.00,,,0.00,WeatherCatV1.12B45,2013-07-12 05:56:00,
2013-07-11 23:01:00,59.0,6.5,30.29,South,176,3.1,4.0,12,0.00,,,0.00,WeatherCatV1.12B45,2013-07-12 06:01:00,
2013-07-11 23:06:00,58.8,6.3,30.29,SW,232,2.7,4.0,12,0.00,,,0.00,WeatherCatV1.12B45,2013-07-12 06:06:00,
2013-07-11 23:11:00,58.8,6.3,30.29,SW,236,2.7,3.1,12,0.00,,,0.00,WeatherCatV1.12B45,2013-07-12 06:11:00,
2013-07-11 23:16:00,58.5,6.1,30.29,SW,224,2.7,3.6,12,0.00,,,0.00,WeatherCatV1.12B45,2013-07-12 06:16:00,
2013-07-11 23:21:00,58.3,5.9,30.29,SW,224,2.7,2.7,12,0.00,,,0.00,WeatherCatV1.12B45,2013-07-12 06:21:00,
2013-07-11 23:26:00,57.9,5.6,30.29,SW,224,2.7,2.7,12,0.00,,,0.00,WeatherCatV1.12B45,2013-07-12 06:26:00,
2013-07-11 23:31:00,57.9,5.6,30.29,SW,224,2.7,2.7,12,0.00,,,0.00,WeatherCatV1.12B45,2013-07-12 06:31:00,
2013-07-11 23:36:00,57.9,5.6,30.29,SW,215,0.0,0.0,12,0.00,,,0.00,WeatherCatV1.12B45,2013-07-12 06:36:00,
2013-07-11 23:41:00,57.7,5.5,30.29,SW,215,0.0,0.0,12,0.00,,,0.00,WeatherCatV1.12B45,2013-07-12 06:41:00,
2013-07-11 23:46:00,57.6,5.4,30.29,SW,215,0.0,0.0,12,0.00,,,0.00,WeatherCatV1.12B45,2013-07-12 06:46:00,
2013-07-11 23:51:00,57.9,5.6,30.29,SW,226,0.0,0.0,12,0.00,,,0.00,WeatherCatV1.12B45,2013-07-12 06:51:00,
2013-07-11 23:56:00,57.9,5.6,30.29,SW,217,0.0,0.0,12,0.00,,,0.00,WeatherCatV1.12B45,2013-07-12 06:56:00,